Dewpoint
14 10 9 10 9 9 10 8 6 4 3 5 7 8 8 9 9 9 8 8 8 7 7 8 9 9 9 8 8 7 6 7 7 8 8 8 9 9 9 10 10 11 10
13 10 9 10 10 10 9 9 8 7 6 4 5 6 8 8 9 10 10 9 9 9 8 8 9 8 8 8 7 7 6 6 7 8 8 8 8 9 9 10 11 11 10
14 11 10 10 10 10 10 10 9 9 8 8 6 6 6 8 9 10 10 10 10 10 9 8 8 8 8 7 7 7 6 7 7 8 8 8 8 9 9 10 10 10 9
14 12 12 11 11 11 11 10 10 10 9 9 9 9 8 7 9 12 13 13 13 12 12 11 10 10 9 8 7 7 6 6 7 8 8 8 9 9 10 10 10 11 11
14 14 13 12 12 12 12 11 10 10 10 10 10 10 10 10 10 10 11 11 11 11 12 11 11 11 10 8 8 8 7 6 6 7 8 9 9 10 10 11 10 10 10
14 14 13 13 12 11 11 11 11 11 9 10 10 10 10 10 10 11 11 11 10 10 10 10 10 9 9 8 7 7 7 7 6 7 8 8 9 10 10 11 11 11 10
13 13 14 13 13 12 13 12 11 9 8 9 9 9 10 10 11 11 11 11 11 11 11 10 10 10 9 8 8 7 7 6 7 6 7 8 8 8 10 11 11 12 11
13 12 13 13 13 13 12 10 7 5 3 1 0 2 3 4 6 7 9 10 11 11 11 11 11 11 11 10 10 8 8 8 7 7 6 7 7 8 9 10 11 10 11
13 13 12 12 12 11 9 6 1 -5 -10 -13 -13 -13 -14 -14 -13 -12 -12 -11 -9 -6 -2 3 9 11 11 11 11 11 10 9 9 8 7 7 7 7 7 9 9 10 10
12 11 10 9 9 7 5 -3 -11 -14 -14 -14 -14 -15 -14 -13 -13 -13 -13 -13 -14 -13 -13 -13 -14 -13 -9 1 9 12 11 11 11 10 9 8 7 7 7 8 9 11 11
10 8 9 7 5 -0 -9 -12 -13 -13 -13 -13 -14 -13 -12 -12 -12 -12 -13 -12 -12 -12 -13 -12 -13 -13 -13 -12 -11 -10 -2 7 11 11 12 11 9 9 8 7 8 9 10
8 7 4 -1 -6 -9 -10 -11 -11 -12 -12 -13 -12 -12 -12 -12 -12 -12 -12 -12 -12 -12 -11 -12 -12 -11 -12 -13 -12 -12 -11 -10 -8 -2 9 12 12 11 10 8 7 8 9
2 -3 -6 -8 -8 -9 -9 -10 -11 -11 -12 -12 -12 -12 -12 -11 -11 -11 -11 -11 -11 -10 -10 -10 -10 -10 -10 -11 -11 -11 -12 -11 -11 -11 -11 -7 6 11 12 11 10 8 8
-4 -6 -7 -7 -8 -8 -9 -10 -10 -11 -11 -11 -11 -11 -11 -11 -10 -10 -10 -10 -10 -10 -10 -10 -10 -10 -10 -10 -10 -10 -11 -11 -11 -12 -12 -12 -10 -4 3 12 13 11 8
-4 -5 -6 -7 -8 -9 -10 -10 -10 -10 -10 -10 -10 -10 -9 -9 -9 -9 -9 -10 -10 -11 -11 -11 -11 -10 -10 -10 -10 -10 -11 -11 -11 -11 -12 -12 -11 -10 -7 -7 10 13 12
-3 -4 -5 -6 -7 -8 -9 -9 -9 -9 -9 -9 -8 -8 -8 -9 -9 -10 -12 -13 -13 -13 -13 -13 -13 -12 -11 -10 -10 -10 -10 -10 -11 -11 -11 -11 -12 -12 -11 -8 -6 6 13
-3 -4 -5 -6 -7 -8 -8 -8 -8 -8 -8 -8 -8 -8 -9 -11 -15 -16 -16 -16 -14 -13 -10 -9 -9 -10 -9 -9 -9 -9 -8 -8 -9 -9 -10 -11 -11 -11 -11 -11 -8 -2 5
-3 -4 -5 -6 -7 -7 -7 -7 -7 -7 -8 -8 -9 -11 -15 -18 -17 -16 -14 -13 -11 -10 -10 -9 -8 -7 -7 -6 -7 -7 -8 -7 -7 -7 -7 -8 -9 -10 -10 -10 -10 -8 -1
-3 -4 -5 -6 -6 -6 -7 -7 -7 -8 -8 -9 -14 -18 -18 -17 -15 -15 -13 -13 -13 -13 -12 -10 -8 -7 -6 -6 -4 -4 -5 -5 -5 -4 -4 -4 -4 -6 -6 -7 -9 -9 -8
-3 -4 -5 -5 -6 -6 -7 -8 -8 -9 -10 -16 -21 -22 -19 -17 -15 -14 -13 -14 -15 -15 -12 -11 -8 -6 -5 -4 -4 -3 -4 -2 -0 2 3 3 3 3 3 2 -2 -5 -7
-3 -4 -4 -5 -6 -8 -8 -8 -9 -11 -17 -23 -24 -23 -23 -21 -18 -16 -14 -14 -17 -18 -13 -11 -10 -8 -5 -3 -3 -3 -1 1 2 1 2 3 3 3 4 5 6 5 4
-3 -3 -4 -5 -7 -9 -9 -10 -12 -17 -23 -27 -28 -27 -27 -28 -29 -28 -22 -17 -19 -19 -14 -13 -10 -7 -5 -3 -3 -2 -1 0 0 -1 2 2 2 2 3 3 4 5 5
-3 -3 -4 -6 -9 -11 -12 -15 -18 -22 -26 -28 -29 -30 -30 -31 -31 -32 -31 -27 -24 -18 -15 -15 -10 -5 -4 -4 -3 -3 -3 -2 -3 1 0 -1 -1 -0 1 2 2 3 4
-3 -3 -4 -6 -10 -14 -16 -18 -22 -24 -27 -30 -31 -31 -32 -32 -32 -33 -34 -34 -30 -20 -18 -18 -10 -4 -4 -4 -4 -4 -4 -4 -3 -3 -1 -1 -2 -2 -1 -0 1 2 2
-2 -3 -4 -6 -8 -15 -19 -20 -23 -27 -30 -31 -32 -32 -32 -33 -34 -35 -36 -35 -31 -29 -29 -21 -12 -6 -4 -4 -4 -4 -4 -4 -4 -4 -3 -2 -2 -0 1 2 3 3 3
-2 -3 -4 -5 -7 -12 -17 -23 -27 -30 -32 -32 -32 -32 -33 -34 -35 -36 -37 -36 -35 -35 -34 -27 -15 -10 -7 -4 -4 -5 -6 -6 -6 -6 -6 -4 -3 -1 0 1 2 2 3
Wind_Speed
17 15 14 12 12 12 11 9 7 6 7 8 8 8 8 8 8 7 7 7 6 6 5 5 4 3 4 4 4 5 4 5 5 5 4 3 2 1 1 1 2 4 5
20 17 15 13 10 7 7 7 8 7 6 6 6 7 7 6 7 6 6 7 6 6 5 4 5 5 5 6 6 6 5 5 5 5 5 5 3 3 2 2 3 4 6
19 17 14 12 12 12 11 10 8 8 7 6 5 5 5 6 5 5 5 5 4 4 5 5 6 7 7 8 8 8 6 6 7 6 5 6 5 5 5 4 4 5 6
19 16 14 15 14 12 11 11 8 7 7 5 4 4 3 4 5 5 5 5 4 5 6 6 7 8 9 9 8 8 9 8 8 7 7 7 6 5 6 7 7 5 7
18 15 15 14 13 10 9 9 8 6 6 5 5 5 5 5 6 6 7 8 8 8 9 9 9 11 12 10 9 9 9 10 10 8 9 9 9 9 9 8 9 8 8
14 14 13 13 11 10 9 8 8 7 5 4 3 4 5 6 7 8 9 9 10 11 13 13 13 14 14 13 12 11 11 11 12 11 11 11 12 11 10 11 10 10 10
14 12 12 12 12 12 10 8 7 5 4 3 3 3 4 5 7 8 10 11 12 13 14 14 15 16 16 15 15 14 13 14 14 15 13 13 14 13 14 14 15 13 11
10 13 14 13 12 12 11 9 6 4 2 2 3 4 4 5 6 8 9 11 12 14 15 16 17 18 19 19 18 18 17 17 17 17 17 16 15 15 16 17 15 14 14
14 12 13 12 11 10 8 6 4 3 3 3 3 4 5 6 8 9 10 11 12 13 15 16 17 18 19 21 22 21 21 20 21 21 20 19 18 18 18 18 19 19 17
12 11 10 9 7 6 6 6 5 4 4 4 5 6 7 8 9 10 12 13 15 15 16 17 19 19 21 21 23 23 22 24 24 24 24 23 21 20 20 20 20 21 19
13 12 11 8 7 7 6 5 5 5 5 6 6 7 8 10 12 13 15 16 17 19 21 21 22 24 23 24 24 25 25 25 24 25 27 26 24 24 23 24 23 23 24
12 11 9 8 6 5 5 3 3 4 5 6 7 8 10 12 14 16 18 19 21 22 21 23 24 24 26 28 28 27 27 28 28 28 27 28 28 27 27 27 26 26 25
13 11 9 7 5 3 3 4 5 6 7 9 10 12 14 15 17 18 19 20 21 21 22 22 22 24 25 27 29 30 29 29 29 30 32 30 30 29 28 29 29 28 28
14 11 8 5 3 2 3 5 7 8 9 11 13 14 15 17 18 19 21 22 23 23 23 23 25 25 25 26 27 29 31 32 32 32 33 33 33 32 32 30 29 30 30
12 9 5 2 2 4 6 7 8 9 10 11 13 15 16 17 18 19 20 21 23 24 24 25 25 25 26 26 28 29 30 32 34 35 36 35 35 36 36 34 34 30 31
10 6 3 1 3 4 6 6 7 8 9 10 12 13 14 15 16 17 18 19 21 23 24 26 26 27 27 27 28 28 30 31 33 35 37 37 37 37 38 38 37 36 31
9 4 1 2 3 4 5 5 6 6 8 9 11 12 13 13 14 16 18 20 21 22 24 25 26 27 28 28 28 29 29 29 29 31 34 37 38 38 39 40 40 39 38
8 4 2 3 3 4 5 5 5 6 7 7 7 8 9 11 13 14 16 18 20 22 24 26 27 27 27 28 29 28 27 27 27 28 29 30 33 35 36 39 41 41 40
9 5 3 2 3 4 4 4 4 4 4 4 6 7 10 11 13 15 17 19 21 23 25 27 28 28 29 29 29 28 24 23 21 21 21 22 23 26 28 32 36 40 41
9 7 4 3 3 3 2 1 1 2 3 4 5 7 8 10 12 14 16 18 20 23 26 29 30 29 28 29 30 25 20 13 8 6 5 8 7 9 11 16 23 28 34
11 7 4 4 3 3 2 1 2 2 3 4 5 7 8 10 11 13 14 16 19 21 24 27 30 32 29 30 28 28 13 7 1 8 6 3 5 6 4 5 7 13 14
10 6 5 4 2 1 2 2 2 1 4 5 7 8 9 11 12 13 15 16 17 19 20 24 29 32 30 26 25 20 13 6 6 15 2 7 8 7 8 8 10 10 13
11 8 6 3 3 3 2 2 1 2 4 5 6 8 9 11 12 13 14 16 16 17 19 22 26 29 29 25 17 14 8 6 23 4 11 13 14 13 12 13 15 15 13
13 10 6 4 4 4 5 4 3 1 2 4 5 7 9 11 12 13 13 13 14 16 18 21 23 27 27 26 21 16 10 11 8 11 15 15 18 13 12 10 10 12 14
15 11 6 5 5 5 4 3 2 2 2 3 6 8 9 10 10 10 11 12 13 15 17 19 21 24 26 25 23 20 13 9 1 11 15 20 12 13 13 4 5 7 11
17 13 9 8 8 5 4 2 1 1 3 4 5 6 7 8 9 11 12 13 13 14 15 17 18 20 23 24 23 18 14 11 15 11 14 21 15 9 9 7 7 7 8
Wind_Direction
185 176 164 157 151 152 152 152 143 132 128 130 136 140 144 149 154 159 160 166 178 186 196 208 220 235 246 264 279 286 291 304 306 312 327 329 303 280 217 200 199 187 184
187 179 172 170 152 143 152 161 162 157 146 137 139 146 155 164 166 168 171 176 185 194 208 224 238 246 257 265 273 279 282 285 288 300 307 307 297 263 226 203 203 197 203
185 182 173 166 164 168 174 169 164 164 161 159 158 167 169 173 185 195 199 201 211 224 233 239 254 260 260 263 266 268 271 273 279 282 285 285 277 259 235 232 214 208 212
182 182 173 178 181 173 178 182 169 173 166 165 167 189 200 205 208 207 214 226 227 254 270 264 264 269 265 266 268 266 264 266 272 275 268 260 260 249 246 234 231 232 234
179 179 183 187 181 181 182 177 182 194 184 191 191 201 209 225 237 242 247 248 246 245 244 253 258 262 265 263 262 266 266 264 269 271 267 262 254 246 255 246 235 246 242
175 187 188 184 184 183 192 193 193 197 191 199 220 244 251 251 255 255 256 259 260 259 262 263 264 266 267 265 261 260 261 263 265 267 263 260 260 253 255 246 246 249 246
191 211 197 191 188 186 192 185 185 177 172 188 209 244 252 261 264 267 269 272 274 272 272 272 271 272 269 267 267 265 260 258 259 261 259 257 259 256 253 257 253 251 253
185 195 190 184 188 189 187 180 185 184 187 227 246 253 266 282 285 283 283 282 282 284 285 284 282 278 274 271 267 265 262 258 257 257 257 254 251 252 252 250 260 247 249
172 179 174 177 185 185 184 184 197 206 229 246 260 284 297 291 289 289 288 286 287 288 287 285 284 284 282 279 273 266 263 261 262 262 260 257 251 249 249 250 249 255 255
176 179 184 180 182 188 201 202 214 227 238 249 272 286 289 289 293 297 296 297 296 290 286 288 288 285 284 282 282 279 270 264 260 261 261 258 256 252 248 250 250 246 248
174 178 189 185 192 200 208 223 234 243 260 278 289 296 297 302 306 306 305 302 299 296 293 287 282 283 279 279 279 280 281 275 266 261 262 260 259 256 251 245 246 247 250
181 186 189 190 200 217 237 260 284 286 286 297 303 307 310 310 309 310 310 308 306 303 299 295 290 284 280 278 276 274 273 275 275 271 263 259 253 253 254 251 246 245 245
178 175 172 178 192 217 252 266 277 292 302 303 304 305 305 307 309 309 308 305 304 303 301 298 292 290 284 280 279 277 272 270 269 269 271 268 261 255 249 253 250 244 244
168 166 167 173 187 241 278 297 300 301 302 303 303 305 306 306 308 310 310 311 312 312 309 307 304 298 291 286 280 276 275 272 267 266 265 266 266 261 256 249 250 250 244
172 168 163 172 262 279 282 286 289 294 296 299 304 311 315 320 321 322 322 322 321 319 317 314 310 305 300 293 287 280 275 273 272 268 264 262 261 260 259 256 249 247 246
167 156 153 219 280 292 297 298 299 301 306 312 316 321 326 329 331 334 336 334 333 329 326 322 318 314 308 301 293 286 280 274 272 272 269 265 259 257 257 256 252 249 248
170 158 182 277 293 293 291 292 297 305 320 330 335 339 341 345 348 349 348 346 345 343 340 336 330 324 318 310 302 295 289 282 276 270 269 269 265 260 255 253 251 249 248
167 178 223 276 290 299 306 310 320 334 343 346 351 357 359 360 1 2 2 0 359 356 353 348 343 339 329 320 312 305 298 293 288 279 273 268 266 263 259 254 250 248 246
178 191 228 258 290 299 303 316 333 348 2 16 23 16 11 9 10 9 9 9 7 6 5 2 359 351 343 334 328 318 314 302 292 289 284 276 271 268 264 258 252 248 245
188 202 205 248 272 266 264 292 357 36 60 51 25 17 14 10 11 12 10 9 8 7 8 9 8 2 354 346 339 336 326 311 310 326 317 305 286 284 281 273 263 256 248
197 201 208 244 245 223 208 186 134 107 70 32 19 15 7 6 5 2 1 1 3 6 9 11 11 9 3 353 351 349 360 342 357 29 2 343 339 359 344 303 282 268 262
200 196 214 231 246 232 196 174 149 65 19 10 4 359 359 356 350 348 349 353 359 4 7 11 13 13 15 4 359 2 345 347 294 319 276 301 308 310 294 295 273 268 261
192 200 212 221 217 219 204 198 269 340 346 347 348 351 352 348 345 347 347 349 354 1 6 10 14 15 15 18 10 8 344 324 328 331 332 322 321 320 303 281 276 278 274
201 209 209 211 214 216 203 199 215 263 314 331 352 358 355 354 354 351 348 348 351 360 5 9 14 16 16 14 18 4 341 310 323 318 325 336 337 324 316 308 296 279 273
207 209 208 215 224 217 214 220 259 331 329 1 10 4 2 357 358 360 5 9 8 9 10 11 16 18 18 16 12 8 3 2 214 314 315 325 344 360 351 347 324 309 281
204 203 210 218 212 199 211 229 328 4 11 14 14 14 16 10 12 16 18 17 18 19 20 20 20 19 21 19 19 14 6 352 325 328 313 321 324 357 23 17 333 352 339
Height
1528 1530 1533 1534 1536 1536 1537 1538 1538 1538 1539 1540 1541 1542 1543 1543 1543 1543 1543 1543 1544 1545 1546 1546 1546 1545 1545 1545 1545 1546 1545 1544 1544 1543 1543 1542 1542 1542 1542 1542 1543 1543 1543
1527 1529 1532 1534 1536 1538 1538 1539 1538 1539 1538 1538 1540 1541 1542 1542 1543 1543 1543 1543 1543 1544 1544 1544 1545 1545 1544 1544 1544 1544 1544 1543 1542 1542 1542 1542 1542 1542 1542 1543 1543 1542 1543
1526 1528 1531 1533 1534 1535 1536 1537 1538 1538 1538 1538 1539 1540 1540 1542 1542 1542 1543 1543 1543 1543 1543 1543 1544 1544 1543 1543 1543 1543 1542 1541 1541 1541 1541 1541 1541 1542 1542 1543 1542 1542 1543
1525 1527 1530 1531 1532 1533 1534 1534 1536 1539 1537 1538 1538 1539 1540 1541 1542 1542 1542 1542 1542 1542 1542 1542 1542 1542 1542 1541 1541 1541 1541 1540 1540 1540 1540 1540 1540 1541 1541 1541 1542 1542 1542
1524 1527 1529 1530 1532 1533 1535 1535 1535 1539 1537 1537 1537 1538 1539 1540 1541 1541 1542 1541 1540 1540 1539 1540 1540 1540 1540 1539 1539 1539 1538 1538 1538 1539 1539 1539 1539 1540 1540 1540 1541 1542 1542
1524 1526 1528 1530 1532 1534 1535 1535 1536 1538 1536 1537 1538 1539 1539 1539 1540 1540 1540 1540 1539 1539 1538 1538 1537 1537 1537 1537 1536 1537 1536 1536 1536 1537 1538 1537 1538 1538 1538 1539 1540 1541 1541
1524 1526 1528 1530 1532 1531 1535 1535 1536 1536 1534 1536 1536 1537 1538 1538 1538 1538 1538 1537 1537 1537 1537 1536 1536 1535 1534 1533 1533 1533 1533 1533 1533 1534 1535 1535 1536 1536 1537 1537 1537 1538 1539
1524 1525 1526 1528 1530 1531 1533 1533 1535 1535 1534 1536 1536 1537 1537 1537 1537 1537 1536 1535 1534 1534 1534 1533 1533 1533 1532 1531 1530 1530 1530 1530 1530 1530 1531 1532 1533 1534 1534 1535 1534 1535 1536
1521 1523 1525 1528 1528 1530 1531 1533 1534 1533 1534 1535 1536 1536 1535 1536 1536 1536 1534 1533 1532 1531 1531 1529 1529 1529 1528 1528 1527 1526 1526 1527 1527 1527 1528 1528 1530 1530 1531 1531 1532 1533 1533
1521 1523 1526 1527 1528 1530 1531 1532 1532 1532 1533 1534 1534 1534 1533 1534 1534 1533 1532 1531 1530 1529 1527 1526 1525 1524 1524 1523 1524 1523 1522 1522 1523 1523 1523 1524 1525 1526 1526 1527 1528 1529 1529
1520 1522 1524 1526 1527 1529 1530 1531 1532 1533 1534 1534 1533 1533 1533 1533 1532 1531 1530 1529 1527 1526 1524 1523 1520 1521 1519 1519 1518 1518 1518 1517 1517 1517 1517 1519 1521 1521 1521 1522 1522 1523 1524
1521 1523 1525 1526 1527 1529 1530 1531 1532 1532 1532 1531 1532 1532 1532 1531 1529 1528 1527 1526 1524 1522 1520 1519 1517 1515 1514 1513 1512 1512 1512 1512 1512 1512 1512 1512 1513 1515 1515 1516 1517 1518 1519
1520 1522 1523 1525 1526 1528 1529 1530 1530 1530 1530 1529 1529 1529 1529 1528 1527 1525 1524 1522 1520 1518 1515 1514 1512 1511 1510 1508 1507 1506 1505 1505 1505 1506 1506 1507 1507 1507 1508 1509 1511 1512 1513
1520 1521 1523 1524 1525 1527 1528 1528 1528 1527 1528 1528 1528 1527 1527 1525 1524 1522 1520 1518 1515 1514 1511 1508 1507 1505 1504 1503 1500 1500 1499 1498 1497 1497 1498 1499 1500 1501 1502 1502 1504 1506 1507
1519 1520 1522 1523 1524 1525 1525 1526 1526 1527 1527 1527 1527 1526 1524 1523 1521 1519 1516 1513 1511 1508 1506 1503 1501 1499 1498 1496 1495 1492 1491 1490 1491 1490 1489 1490 1491 1493 1494 1495 1496 1498 1499
1520 1521 1522 1522 1522 1523 1523 1524 1525 1526 1526 1525 1524 1523 1521 1519 1518 1516 1513 1510 1507 1505 1501 1498 1494 1493 1491 1489 1487 1485 1484 1483 1482 1482 1481 1480 1481 1483 1485 1486 1488 1489 1491
1518 1520 1521 1522 1522 1522 1522 1522 1523 1523 1523 1523 1522 1521 1520 1518 1516 1514 1512 1509 1505 1502 1500 1495 1491 1487 1485 1482 1479 1477 1475 1475 1475 1473 1472 1472 1473 1473 1474 1476 1478 1480 1482
1518 1519 1520 1520 1521 1521 1521 1521 1521 1522 1521 1521 1520 1519 1519 1517 1515 1512 1509 1507 1503 1500 1496 1492 1489 1484 1479 1475 1473 1471 1469 1467 1465 1464 1464 1463 1464 1465 1465 1466 1468 1470 1473
1516 1518 1519 1520 1520 1520 1521 1521 1521 1521 1520 1520 1520 1519 1517 1516 1514 1511 1509 1506 1503 1499 1494 1492 1486 1482 1476 1471 1466 1464 1463 1460 1458 1457 1456 1455 1456 1456 1457 1458 1458 1460 1463
1515 1517 1518 1520 1520 1520 1520 1520 1520 1520 1519 1519 1519 1518 1516 1515 1513 1511 1509 1506 1502 1498 1494 1490 1485 1480 1474 1468 1463 1459 1457 1456 1455 1454 1454 1453 1452 1451 1451 1451 1451 1452 1454
1514 1515 1516 1518 1518 1519 1519 1520 1520 1520 1520 1519 1519 1518 1516 1514 1512 1511 1508 1505 1501 1498 1494 1490 1486 1479 1473 1466 1460 1456 1455 1456 1455 1453 1453 1452 1451 1451 1450 1448 1448 1447 1449
1514 1515 1515 1516 1517 1517 1518 1518 1519 1519 1518 1518 1517 1516 1514 1513 1511 1509 1507 1504 1500 1497 1493 1489 1484 1479 1474 1468 1463 1459 1457 1457 1455 1452 1452 1450 1450 1449 1448 1448 1446 1445 1445
1513 1514 1515 1515 1515 1516 1518 1518 1518 1517 1517 1517 1516 1515 1514 1512 1511 1508 1505 1504 1500 1496 1492 1487 1484 1480 1475 1471 1467 1467 1462 1460 1454 1452 1451 1450 1448 1447 1446 1444 1443 1442 1441
1511 1513 1514 1514 1515 1516 1517 1517 1516 1515 1515 1515 1515 1513 1513 1511 1509 1507 1505 1503 1500 1496 1492 1488 1483 1480 1476 1472 1468 1467 1465 1462 1459 1452 1449 1448 1446 1444 1442 1441 1440 1438 1436
1510 1511 1512 1513 1514 1515 1516 1516 1515 1514 1516 1515 1513 1513 1511 1511 1510 1507 1505 1502 1499 1496 1493 1490 1484 1481 1477 1473 1468 1466 1464 1463 1461 1459 1448 1445 1442 1442 1440 1438 1437 1434 1432
1507 1509 1510 1512 1513 1513 1514 1515 1514 1514 1515 1515 1513 1512 1509 1511 1508 1505 1503 1501 1499 1496 1493 1489 1486 1482 1478 1476 1471 1467 1465 1464 1462 1458 1452 1446 1442 1441 1440 1436 1434 1432 1430